User: anonymous   Login
Location: Unspecified
(0.0000°N, 0.0000°E)
Time: 17:26:01
(UTC+00:00)
Language:

COSMOS 2483 - Orbit

View from above orbital plane
View from above orbital plane
View from above satellite
View from above satellite

Ground track
Ground track

The orbit data is extracted from the following two-line orbital elements,

1 39058U 13001B   19016.75680488  .00000035  00000-0  17959-3 0  9995
2 39058  82.5011 102.7972 0016665 169.8752 190.2667 12.43952350272538
Epoch (UTC): 16 January 2019 18:09:47
Eccentricity: 0.0016665
inclination: 82.5011°
perigee height: 1477 km
apogee height: 1503 km
right ascension of ascending node: 102.7972°
argument of perigee: 169.8752°
revolutions per day: 12.43952350
mean anomaly at epoch: 190.2667°
orbit number at epoch: 27253

The dashed part of the orbit path shows where the satellite is in the earth's shadow,  

DLR